Location: Linz
(48.3300°N, 14.3000°E)
Time: 10:35:33
(UTC+01:00)

Vanguard 2 - Visible Passes

Search period start: 24 November 2017 00:00
Search period end: 04 December 2017 00:00
Orbit: 553 x 2939 km, 32.9° (Epoch: 23 November)

Date Brightness Start Highest point End Pass type
(mag) Time Alt. Az. Time Alt. Az. Time Alt. Az.
24 Nov 11.6 01:17:09 10° SE 01:17:09 10° SE 01:17:10 10° SE visible
24 Nov 11.0 03:18:35 22° S 03:18:35 22° S 03:26:16 10° SSE visible
25 Nov 11.6 01:34:25 10° SE 01:34:25 10° SE 01:34:37 10° SE visible
25 Nov 11.1 03:35:51 18° SSW 03:35:51 18° SSW 03:42:22 10° SSE visible
26 Nov 11.5 01:51:40 10° SE 01:51:40 10° SE 01:51:47 10° SE visible
26 Nov 11.2 03:53:07 13° SSW 03:53:07 13° SSW 03:57:24 10° S visible
